Year,Month,Day,Hour,Minute,Value (Times are PST for temperature in C)
2010,07,09,00,00,22.70
2010,07,09,00,01,22.70
2010,07,09,00,02,22.70
2010,07,09,00,03,22.70
2010,07,09,00,04,22.60
2010,07,09,00,05,22.60
2010,07,09,00,06,22.60
2010,07,09,00,07,22.50
2010,07,09,00,08,22.40
2010,07,09,00,09,22.30
2010,07,09,00,10,22.30
2010,07,09,00,11,22.20
2010,07,09,00,12,22.20
2010,07,09,00,13,22.10
2010,07,09,00,14,22.10
2010,07,09,00,15,22.10
2010,07,09,00,16,22.00
2010,07,09,00,17,22.00
2010,07,09,00,18,21.90
2010,07,09,00,19,21.90
2010,07,09,00,20,21.90
2010,07,09,00,21,21.90
2010,07,09,00,22,22.00
2010,07,09,00,23,22.00
2010,07,09,00,24,22.10
2010,07,09,00,25,22.10
2010,07,09,00,26,22.10
2010,07,09,00,27,22.10
2010,07,09,00,28,22.10
2010,07,09,00,29,22.10
2010,07,09,00,30,22.20
2010,07,09,00,31,22.20
2010,07,09,00,32,22.20
2010,07,09,00,33,22.20
2010,07,09,00,34,22.20
2010,07,09,00,35,22.20
2010,07,09,00,36,22.10
2010,07,09,00,37,22.10
2010,07,09,00,38,22.10
2010,07,09,00,39,22.00
2010,07,09,00,40,22.00
2010,07,09,00,41,22.00
2010,07,09,00,42,21.90
2010,07,09,00,43,21.90
2010,07,09,00,44,21.90
2010,07,09,00,45,21.90
2010,07,09,00,46,21.80
2010,07,09,00,47,21.80
2010,07,09,00,48,21.80
2010,07,09,00,49,21.70
2010,07,09,00,50,21.70
2010,07,09,00,51,21.70
2010,07,09,00,52,21.70
2010,07,09,00,53,21.60
2010,07,09,00,54,21.60
2010,07,09,00,55,21.70
2010,07,09,00,56,21.70
2010,07,09,00,57,21.70
2010,07,09,00,58,21.70
2010,07,09,00,59,21.80
2010,07,09,01,00,21.80
2010,07,09,01,01,21.80
2010,07,09,01,02,21.80
2010,07,09,01,03,21.90
2010,07,09,01,04,21.90
2010,07,09,01,05,22.00
2010,07,09,01,06,22.10
2010,07,09,01,07,22.10
2010,07,09,01,08,22.20
2010,07,09,01,09,22.20
2010,07,09,01,10,22.30
2010,07,09,01,11,22.30
2010,07,09,01,12,22.30
2010,07,09,01,13,22.30
2010,07,09,01,14,22.30
2010,07,09,01,15,22.30
2010,07,09,01,16,22.40
2010,07,09,01,17,22.40
2010,07,09,01,18,22.40
2010,07,09,01,19,22.40
2010,07,09,01,20,22.40
2010,07,09,01,21,22.30
2010,07,09,01,22,22.30
2010,07,09,01,23,22.20
2010,07,09,01,24,22.10
2010,07,09,01,25,21.90
2010,07,09,01,26,21.80
2010,07,09,01,27,21.80
2010,07,09,01,28,21.70
2010,07,09,01,29,21.70
2010,07,09,01,30,21.70
2010,07,09,01,31,21.70
2010,07,09,01,32,21.70
2010,07,09,01,33,21.70
2010,07,09,01,34,21.70
2010,07,09,01,35,21.70
2010,07,09,01,36,21.70
2010,07,09,01,37,21.70
2010,07,09,01,38,21.70
2010,07,09,01,39,21.70
2010,07,09,01,40,21.60
2010,07,09,01,41,21.60
2010,07,09,01,42,21.60
2010,07,09,01,43,21.50
2010,07,09,01,44,21.50
2010,07,09,01,45,21.40
2010,07,09,01,46,21.40
2010,07,09,01,47,21.30
2010,07,09,01,48,21.30
2010,07,09,01,49,21.30
2010,07,09,01,50,21.30
2010,07,09,01,51,21.30
2010,07,09,01,52,21.30
2010,07,09,01,53,21.40
2010,07,09,01,54,21.50
2010,07,09,01,55,21.60
2010,07,09,01,56,21.70
2010,07,09,01,57,21.80
2010,07,09,01,58,21.90
2010,07,09,01,59,22.00
2010,07,09,02,00,22.20
2010,07,09,02,01,22.30
2010,07,09,02,02,22.40
2010,07,09,02,03,22.60
2010,07,09,02,04,22.70
2010,07,09,02,05,22.80
2010,07,09,02,06,22.90
2010,07,09,02,07,22.90
2010,07,09,02,08,22.80
2010,07,09,02,09,22.70
2010,07,09,02,10,22.70
2010,07,09,02,11,22.60
2010,07,09,02,12,22.50
2010,07,09,02,13,22.30
2010,07,09,02,14,22.10
2010,07,09,02,15,21.90
2010,07,09,02,16,21.80
2010,07,09,02,17,21.70
2010,07,09,02,18,21.60
2010,07,09,02,19,21.60
2010,07,09,02,20,21.50
2010,07,09,02,21,21.50
2010,07,09,02,22,21.40
2010,07,09,02,23,21.40
2010,07,09,02,24,21.40
2010,07,09,02,25,21.40
2010,07,09,02,26,21.50
2010,07,09,02,27,21.50
2010,07,09,02,28,21.50
2010,07,09,02,29,21.40
2010,07,09,02,30,21.40
2010,07,09,02,31,21.40
2010,07,09,02,32,21.30
2010,07,09,02,33,21.20
2010,07,09,02,34,21.10
2010,07,09,02,35,21.00
2010,07,09,02,36,21.00
2010,07,09,02,37,20.90
2010,07,09,02,38,20.90
2010,07,09,02,39,20.90
2010,07,09,02,40,20.90
2010,07,09,02,41,20.90
2010,07,09,02,42,20.80
2010,07,09,02,43,20.80
2010,07,09,02,44,20.80
2010,07,09,02,45,20.80
2010,07,09,02,46,20.80
2010,07,09,02,47,20.80
2010,07,09,02,48,20.80
2010,07,09,02,49,20.80
2010,07,09,02,50,20.80
2010,07,09,02,51,20.80
2010,07,09,02,52,20.80
2010,07,09,02,53,20.80
2010,07,09,02,54,20.80
2010,07,09,02,55,20.80
2010,07,09,02,56,20.70
2010,07,09,02,57,20.70
2010,07,09,02,58,20.70
2010,07,09,02,59,20.70
2010,07,09,03,00,20.70
2010,07,09,03,01,20.70
2010,07,09,03,02,20.70
2010,07,09,03,03,20.70
2010,07,09,03,04,20.80
2010,07,09,03,05,20.80
2010,07,09,03,06,20.80
2010,07,09,03,07,20.80
2010,07,09,03,08,20.80
2010,07,09,03,09,20.80
2010,07,09,03,10,20.80
2010,07,09,03,11,20.80
2010,07,09,03,12,20.80
2010,07,09,03,13,20.80
2010,07,09,03,14,20.80
2010,07,09,03,15,20.80
2010,07,09,03,16,20.80
2010,07,09,03,17,20.80
2010,07,09,03,18,20.80
2010,07,09,03,19,20.80
2010,07,09,03,20,20.80
2010,07,09,03,21,20.80
2010,07,09,03,22,20.80
2010,07,09,03,23,20.80
2010,07,09,03,24,20.80
2010,07,09,03,25,20.80
2010,07,09,03,26,20.80
2010,07,09,03,27,20.80
2010,07,09,03,28,20.80
2010,07,09,03,29,20.80
2010,07,09,03,30,20.80
2010,07,09,03,31,20.80
2010,07,09,03,32,20.80
2010,07,09,03,33,20.90
2010,07,09,03,34,20.90
2010,07,09,03,35,20.90
2010,07,09,03,36,20.90
2010,07,09,03,37,20.90
2010,07,09,03,38,21.00
2010,07,09,03,39,21.00
2010,07,09,03,40,21.00
2010,07,09,03,41,21.10
2010,07,09,03,42,21.10
2010,07,09,03,43,21.10
2010,07,09,03,44,21.20
2010,07,09,03,45,21.20
2010,07,09,03,46,21.30
2010,07,09,03,47,21.30
2010,07,09,03,48,21.30
2010,07,09,03,49,21.30
2010,07,09,03,50,21.30
2010,07,09,03,51,21.30
2010,07,09,03,52,21.30
2010,07,09,03,53,21.30
2010,07,09,03,54,21.30
2010,07,09,03,55,21.30
2010,07,09,03,56,21.30
2010,07,09,03,57,21.40
2010,07,09,03,58,21.40
2010,07,09,03,59,21.30
2010,07,09,04,00,21.30
2010,07,09,04,01,21.30
2010,07,09,04,02,21.30
2010,07,09,04,03,21.30
2010,07,09,04,04,21.30
2010,07,09,04,05,21.30
2010,07,09,04,06,21.30
2010,07,09,04,07,21.30
2010,07,09,04,08,21.30
2010,07,09,04,09,21.30
2010,07,09,04,10,21.30
2010,07,09,04,11,21.30
2010,07,09,04,12,21.30
2010,07,09,04,13,21.30
2010,07,09,04,14,21.30
2010,07,09,04,15,21.30
2010,07,09,04,16,21.30
2010,07,09,04,17,21.30
2010,07,09,04,18,21.30
2010,07,09,04,19,21.30
2010,07,09,04,20,21.30
2010,07,09,04,21,21.30
2010,07,09,04,22,21.30
2010,07,09,04,23,21.20
2010,07,09,04,24,21.20
2010,07,09,04,25,21.20
2010,07,09,04,26,21.20
2010,07,09,04,27,21.20
2010,07,09,04,28,21.10
2010,07,09,04,29,21.10
2010,07,09,04,30,21.10
2010,07,09,04,31,21.00
2010,07,09,04,32,21.00
2010,07,09,04,33,20.90
2010,07,09,04,34,20.90
2010,07,09,04,35,20.90
2010,07,09,04,36,20.80
2010,07,09,04,37,20.80
2010,07,09,04,38,20.70
2010,07,09,04,39,20.70
2010,07,09,04,40,20.60
2010,07,09,04,41,20.50
2010,07,09,04,42,20.50
2010,07,09,04,43,20.40
2010,07,09,04,44,20.40
2010,07,09,04,45,20.30
2010,07,09,04,46,20.30
2010,07,09,04,47,20.30
2010,07,09,04,48,20.20
2010,07,09,04,49,20.20
2010,07,09,04,50,20.10
2010,07,09,04,51,20.10
2010,07,09,04,52,20.00
2010,07,09,04,53,20.00
2010,07,09,04,54,19.90
2010,07,09,04,55,19.90
2010,07,09,04,56,19.80
2010,07,09,04,57,19.80
2010,07,09,04,58,19.80
2010,07,09,04,59,19.70
2010,07,09,05,00,19.70
2010,07,09,05,01,19.70
2010,07,09,05,02,19.60
2010,07,09,05,03,19.60
2010,07,09,05,04,19.60
2010,07,09,05,05,19.50
2010,07,09,05,06,19.50
2010,07,09,05,07,19.40
2010,07,09,05,08,19.40
2010,07,09,05,09,19.40
2010,07,09,05,10,19.40
2010,07,09,05,11,19.40
2010,07,09,05,12,19.40
2010,07,09,05,13,19.40
2010,07,09,05,14,19.30
2010,07,09,05,15,19.30
2010,07,09,05,16,19.30
2010,07,09,05,17,19.30
2010,07,09,05,18,19.30
2010,07,09,05,19,19.30
2010,07,09,05,20,19.30
2010,07,09,05,21,19.30
2010,07,09,05,22,19.30
2010,07,09,05,23,19.30
2010,07,09,05,24,19.30
2010,07,09,05,25,19.30
2010,07,09,05,26,19.30
2010,07,09,05,27,19.30
2010,07,09,05,28,19.30
2010,07,09,05,29,19.30
2010,07,09,05,30,19.30
2010,07,09,05,31,19.30
2010,07,09,05,32,19.30
2010,07,09,05,33,19.30
2010,07,09,05,34,19.30
2010,07,09,05,35,19.30
2010,07,09,05,36,19.30
2010,07,09,05,37,19.30
2010,07,09,05,38,19.30
2010,07,09,05,39,19.30
2010,07,09,05,40,19.30
2010,07,09,05,41,19.30
2010,07,09,05,42,19.30
2010,07,09,05,43,19.30
2010,07,09,05,44,19.40
2010,07,09,05,45,19.40
2010,07,09,05,46,19.40
2010,07,09,05,47,19.50
2010,07,09,05,48,19.50
2010,07,09,05,49,19.50
2010,07,09,05,50,19.60
2010,07,09,05,51,19.60
2010,07,09,05,52,19.60
2010,07,09,05,53,19.70
2010,07,09,05,54,19.70
2010,07,09,05,55,19.80
2010,07,09,05,56,19.80
2010,07,09,05,57,19.80
2010,07,09,05,58,19.80
2010,07,09,05,59,19.80
2010,07,09,06,00,19.90
2010,07,09,06,01,19.90
2010,07,09,06,02,19.90
2010,07,09,06,03,19.90
2010,07,09,06,04,19.90
2010,07,09,06,05,19.90
2010,07,09,06,06,19.90
2010,07,09,06,07,20.00
2010,07,09,06,08,20.00
2010,07,09,06,09,20.00
2010,07,09,06,10,20.00
2010,07,09,06,11,20.00
2010,07,09,06,12,20.00
2010,07,09,06,13,20.00
2010,07,09,06,14,20.10
2010,07,09,06,15,20.00
2010,07,09,06,16,20.00
2010,07,09,06,17,20.00
2010,07,09,06,18,20.10
2010,07,09,06,19,20.10
2010,07,09,06,20,20.10
2010,07,09,06,21,20.10
2010,07,09,06,22,20.10
2010,07,09,06,23,20.10
2010,07,09,06,24,20.10
2010,07,09,06,25,20.10
2010,07,09,06,26,20.10
2010,07,09,06,27,20.20
2010,07,09,06,28,20.20
2010,07,09,06,29,20.20
2010,07,09,06,30,20.20
2010,07,09,06,31,20.20
2010,07,09,06,32,20.30
2010,07,09,06,33,20.30
2010,07,09,06,34,20.30
2010,07,09,06,35,20.30
2010,07,09,06,36,20.40
2010,07,09,06,37,20.40
2010,07,09,06,38,20.40
2010,07,09,06,39,20.50
2010,07,09,06,40,20.50
2010,07,09,06,41,20.60
2010,07,09,06,42,20.60
2010,07,09,06,43,20.70
2010,07,09,06,44,20.70
2010,07,09,06,45,20.70
2010,07,09,06,46,20.80
2010,07,09,06,47,20.80
2010,07,09,06,48,20.80
2010,07,09,06,49,20.80
2010,07,09,06,50,20.80
2010,07,09,06,51,20.90
2010,07,09,06,52,20.90
2010,07,09,06,53,20.90
2010,07,09,06,54,21.00
2010,07,09,06,55,21.00
2010,07,09,06,56,21.10
2010,07,09,06,57,21.10
2010,07,09,06,58,21.10
2010,07,09,06,59,21.10
2010,07,09,07,00,21.10
2010,07,09,07,01,21.10
2010,07,09,07,02,21.20
2010,07,09,07,03,21.20
2010,07,09,07,04,21.20
2010,07,09,07,05,21.20
2010,07,09,07,06,21.20
2010,07,09,07,07,21.20
2010,07,09,07,08,21.30
2010,07,09,07,09,21.30
2010,07,09,07,10,21.30
2010,07,09,07,11,21.30
2010,07,09,07,12,21.30
2010,07,09,07,13,21.30
2010,07,09,07,14,21.30
2010,07,09,07,15,21.30
2010,07,09,07,16,21.30
2010,07,09,07,17,21.40
2010,07,09,07,18,21.40
2010,07,09,07,19,21.40
2010,07,09,07,20,21.40
2010,07,09,07,21,21.50
2010,07,09,07,22,21.50
2010,07,09,07,23,21.50
2010,07,09,07,24,21.60
2010,07,09,07,25,21.60
2010,07,09,07,26,21.60
2010,07,09,07,27,21.70
2010,07,09,07,28,21.70
2010,07,09,07,29,21.80
2010,07,09,07,30,21.80
2010,07,09,07,31,21.80
2010,07,09,07,32,21.90
2010,07,09,07,33,21.90
2010,07,09,07,34,21.90
2010,07,09,07,35,22.00
2010,07,09,07,36,22.10
2010,07,09,07,37,22.10
2010,07,09,07,38,22.20
2010,07,09,07,39,22.20
2010,07,09,07,40,22.30
2010,07,09,07,41,22.30
2010,07,09,07,42,22.40
2010,07,09,07,43,22.50
2010,07,09,07,44,22.50
2010,07,09,07,45,22.50
2010,07,09,07,46,22.50
2010,07,09,07,47,22.50
2010,07,09,07,48,22.50
2010,07,09,07,49,22.40
2010,07,09,07,50,22.40
2010,07,09,07,51,22.40
2010,07,09,07,52,22.40
2010,07,09,07,53,22.40
2010,07,09,07,54,22.30
2010,07,09,07,55,22.30
2010,07,09,07,56,22.40
2010,07,09,07,57,22.40
2010,07,09,07,58,22.40
2010,07,09,07,59,22.50
2010,07,09,08,00,22.50
2010,07,09,08,01,22.50
2010,07,09,08,02,22.60
2010,07,09,08,03,22.60
2010,07,09,08,04,22.60
2010,07,09,08,05,22.60
2010,07,09,08,06,22.70
2010,07,09,08,07,22.70
2010,07,09,08,08,22.70
2010,07,09,08,09,22.80
2010,07,09,08,10,22.80
2010,07,09,08,11,22.80
2010,07,09,08,12,22.80
2010,07,09,08,13,22.80
2010,07,09,08,14,22.80
2010,07,09,08,15,22.80
2010,07,09,08,16,22.80
2010,07,09,08,17,22.90
2010,07,09,08,18,23.00
2010,07,09,08,19,23.00
2010,07,09,08,20,23.10
2010,07,09,08,21,23.20
2010,07,09,08,22,23.20
2010,07,09,08,23,23.30
2010,07,09,08,24,23.30
2010,07,09,08,25,23.40
2010,07,09,08,26,23.40
2010,07,09,08,27,23.40
2010,07,09,08,28,23.40
2010,07,09,08,29,23.40
2010,07,09,08,30,23.40
2010,07,09,08,31,23.30
2010,07,09,08,32,23.30
2010,07,09,08,33,23.30
2010,07,09,08,34,23.20
2010,07,09,08,35,23.20
2010,07,09,08,36,23.20
2010,07,09,08,37,23.20
2010,07,09,08,38,23.20
2010,07,09,08,39,23.20
2010,07,09,08,40,23.30
2010,07,09,08,41,23.30
2010,07,09,08,42,23.30
2010,07,09,08,43,23.30
2010,07,09,08,44,23.30
2010,07,09,08,45,23.30
2010,07,09,08,46,23.30
2010,07,09,08,47,23.30
2010,07,09,08,48,23.30
2010,07,09,08,49,23.20
2010,07,09,08,50,23.20
2010,07,09,08,51,23.30
2010,07,09,08,52,23.30
2010,07,09,08,53,23.40
2010,07,09,08,54,23.40
2010,07,09,08,55,23.50
2010,07,09,08,56,23.60
2010,07,09,08,57,23.70
2010,07,09,08,58,23.70
2010,07,09,08,59,23.70
2010,07,09,09,00,23.80
2010,07,09,09,01,23.80
2010,07,09,09,02,23.80
2010,07,09,09,03,23.80
2010,07,09,09,04,23.90
2010,07,09,09,05,23.90
2010,07,09,09,06,24.00
2010,07,09,09,07,24.00
2010,07,09,09,08,24.00
2010,07,09,09,09,24.00
2010,07,09,09,10,24.00
2010,07,09,09,11,23.90
2010,07,09,09,12,23.90
2010,07,09,09,13,23.80
2010,07,09,09,14,23.80
2010,07,09,09,15,23.70
2010,07,09,09,16,23.70
2010,07,09,09,17,23.80
2010,07,09,09,18,23.80
2010,07,09,09,19,23.80
2010,07,09,09,20,23.90
2010,07,09,09,21,23.90
2010,07,09,09,22,23.90
2010,07,09,09,23,24.00
2010,07,09,09,24,24.00
2010,07,09,09,25,24.00
2010,07,09,09,26,24.10
2010,07,09,09,27,24.10
2010,07,09,09,28,24.10
2010,07,09,09,29,24.10
2010,07,09,09,30,24.10
2010,07,09,09,31,24.10
2010,07,09,09,32,24.10
2010,07,09,09,33,24.10
2010,07,09,09,34,24.10
2010,07,09,09,35,24.20
2010,07,09,09,36,24.20
2010,07,09,09,37,24.20
2010,07,09,09,38,24.10
2010,07,09,09,39,24.10
2010,07,09,09,40,24.00
2010,07,09,09,41,23.90
2010,07,09,09,42,23.80
2010,07,09,09,43,23.90
2010,07,09,09,44,23.90
2010,07,09,09,45,24.00
2010,07,09,09,46,24.10
2010,07,09,09,47,24.10
2010,07,09,09,48,24.20
2010,07,09,09,49,24.20
2010,07,09,09,50,24.20
2010,07,09,09,51,24.30
2010,07,09,09,52,24.30
2010,07,09,09,53,24.30
2010,07,09,09,54,24.30
2010,07,09,09,55,24.30
2010,07,09,09,56,24.30
2010,07,09,09,57,24.40
2010,07,09,09,58,24.30
2010,07,09,09,59,24.30
2010,07,09,10,00,24.30
2010,07,09,10,01,24.30
2010,07,09,10,02,24.30
2010,07,09,10,03,24.20
2010,07,09,10,04,24.10
2010,07,09,10,05,24.10
2010,07,09,10,06,24.00
2010,07,09,10,07,24.00
2010,07,09,10,08,24.10
2010,07,09,10,09,24.10
2010,07,09,10,10,24.10
2010,07,09,10,11,24.20
2010,07,09,10,12,24.30
2010,07,09,10,13,24.30
2010,07,09,10,14,24.30
2010,07,09,10,15,24.40
2010,07,09,10,16,24.40
2010,07,09,10,17,24.40
2010,07,09,10,18,24.30
2010,07,09,10,19,24.30
2010,07,09,10,20,24.20
2010,07,09,10,21,24.20
2010,07,09,10,22,24.20
2010,07,09,10,23,24.20
2010,07,09,10,24,24.20
2010,07,09,10,25,24.20
2010,07,09,10,26,24.20
2010,07,09,10,27,24.20
2010,07,09,10,28,24.20
2010,07,09,10,29,24.20
2010,07,09,10,30,24.20
2010,07,09,10,31,24.20
2010,07,09,10,32,24.10
2010,07,09,10,33,24.20
2010,07,09,10,34,24.20
2010,07,09,10,35,24.30
2010,07,09,10,36,24.30
2010,07,09,10,37,24.30
2010,07,09,10,38,24.40
2010,07,09,10,39,24.40
2010,07,09,10,40,24.40
2010,07,09,10,41,24.40
2010,07,09,10,42,24.50
2010,07,09,10,43,24.50
2010,07,09,10,44,24.60
2010,07,09,10,45,24.60
2010,07,09,10,46,24.60
2010,07,09,10,47,24.70
2010,07,09,10,48,24.80
2010,07,09,10,49,24.80
2010,07,09,10,50,24.80
2010,07,09,10,51,24.80
2010,07,09,10,52,24.90
2010,07,09,10,53,24.90
2010,07,09,10,54,24.90
2010,07,09,10,55,24.80
2010,07,09,10,56,24.80
2010,07,09,10,57,24.80
2010,07,09,10,58,24.80
2010,07,09,10,59,24.90
2010,07,09,11,00,24.90
2010,07,09,11,01,24.90
2010,07,09,11,02,25.00
2010,07,09,11,03,25.00
2010,07,09,11,04,24.90
2010,07,09,11,05,24.90
2010,07,09,11,06,24.90
2010,07,09,11,07,24.80
2010,07,09,11,08,24.80
2010,07,09,11,09,24.90
2010,07,09,11,10,25.00
2010,07,09,11,11,25.10
2010,07,09,11,12,25.20
2010,07,09,11,13,25.30
2010,07,09,11,14,25.40
2010,07,09,11,15,25.50
2010,07,09,11,16,25.60
2010,07,09,11,17,25.60
2010,07,09,11,18,25.60
2010,07,09,11,19,25.60
2010,07,09,11,20,25.70
2010,07,09,11,21,25.70
2010,07,09,11,22,25.80
2010,07,09,11,23,25.90
2010,07,09,11,24,25.90
2010,07,09,11,25,26.00
2010,07,09,11,26,26.00
2010,07,09,11,27,26.00
2010,07,09,11,28,26.10
2010,07,09,11,29,26.10
2010,07,09,11,30,26.20
2010,07,09,11,31,26.30
2010,07,09,11,32,26.30
2010,07,09,11,33,26.20
2010,07,09,11,34,26.20
2010,07,09,11,35,26.20
2010,07,09,11,36,26.20
2010,07,09,11,37,26.10
2010,07,09,11,38,26.00
2010,07,09,11,39,25.90
2010,07,09,11,40,25.80
2010,07,09,11,41,25.70
2010,07,09,11,42,25.60
2010,07,09,11,43,25.50
2010,07,09,11,44,25.40
2010,07,09,11,45,25.40
2010,07,09,11,46,25.30
2010,07,09,11,47,25.30
2010,07,09,11,48,25.20
2010,07,09,11,49,25.20
2010,07,09,11,50,25.20
2010,07,09,11,51,25.30
2010,07,09,11,52,25.30
2010,07,09,11,53,25.40
2010,07,09,11,54,25.40
2010,07,09,11,55,25.50
2010,07,09,11,56,25.60
2010,07,09,11,57,25.70
2010,07,09,11,58,25.70
2010,07,09,11,59,25.80
2010,07,09,12,00,25.90
2010,07,09,12,01,25.90
2010,07,09,12,02,25.90
2010,07,09,12,03,25.80
2010,07,09,12,04,25.70
2010,07,09,12,05,25.70
2010,07,09,12,06,25.80
2010,07,09,12,07,25.90
2010,07,09,12,08,25.90
2010,07,09,12,09,26.00
2010,07,09,12,10,26.20
2010,07,09,12,11,26.20
2010,07,09,12,12,26.30
2010,07,09,12,13,26.30
2010,07,09,12,14,26.40
2010,07,09,12,15,26.40
2010,07,09,12,16,26.40
2010,07,09,12,17,26.40
2010,07,09,12,18,26.30
2010,07,09,12,19,26.30
2010,07,09,12,20,26.20
2010,07,09,12,21,26.20
2010,07,09,12,22,26.10
2010,07,09,12,23,25.90
2010,07,09,12,24,25.80
2010,07,09,12,25,25.60
2010,07,09,12,26,25.60
2010,07,09,12,27,25.50
2010,07,09,12,28,25.50
2010,07,09,12,29,25.60
2010,07,09,12,30,25.60
2010,07,09,12,31,25.60
2010,07,09,12,32,25.70
2010,07,09,12,33,25.80
2010,07,09,12,34,25.80
2010,07,09,12,35,25.90
2010,07,09,12,36,25.90
2010,07,09,12,37,26.10
2010,07,09,12,38,26.20
2010,07,09,12,39,26.30
2010,07,09,12,40,26.30
2010,07,09,12,41,26.30
2010,07,09,12,42,26.20
2010,07,09,12,43,26.10
2010,07,09,12,44,26.10
2010,07,09,12,45,26.10
2010,07,09,12,46,26.10
2010,07,09,12,47,26.20
2010,07,09,12,48,26.20
2010,07,09,12,49,26.20
2010,07,09,12,50,26.20
2010,07,09,12,51,26.20
2010,07,09,12,52,26.20
2010,07,09,12,53,26.30
2010,07,09,12,54,26.40
2010,07,09,12,55,26.60
2010,07,09,12,56,26.70
2010,07,09,12,57,26.80
2010,07,09,12,58,26.90
2010,07,09,12,59,27.00
2010,07,09,13,00,27.00
2010,07,09,13,01,27.10
2010,07,09,13,02,27.10
2010,07,09,13,03,27.10
2010,07,09,13,04,27.10
2010,07,09,13,05,26.90
2010,07,09,13,06,26.80
2010,07,09,13,07,26.80
2010,07,09,13,08,26.70
2010,07,09,13,09,26.70
2010,07,09,13,10,26.60
2010,07,09,13,11,26.50
2010,07,09,13,12,26.50
2010,07,09,13,13,26.50
2010,07,09,13,14,26.50
2010,07,09,13,15,26.50
2010,07,09,13,16,26.50
2010,07,09,13,17,26.50
2010,07,09,13,18,26.50
2010,07,09,13,19,26.50
2010,07,09,13,20,26.40
2010,07,09,13,21,26.30
2010,07,09,13,22,26.30
2010,07,09,13,23,26.30
2010,07,09,13,24,26.30
2010,07,09,13,25,26.30
2010,07,09,13,26,26.40
2010,07,09,13,27,26.50
2010,07,09,13,28,26.60
2010,07,09,13,29,26.60
2010,07,09,13,30,26.70
2010,07,09,13,31,26.80
2010,07,09,13,32,27.00
2010,07,09,13,33,27.10
2010,07,09,13,34,27.10
2010,07,09,13,35,27.20
2010,07,09,13,36,27.20
2010,07,09,13,37,27.20
2010,07,09,13,38,27.20
2010,07,09,13,39,27.20
2010,07,09,13,40,27.20
2010,07,09,13,41,27.20
2010,07,09,13,42,27.10
2010,07,09,13,43,27.00
2010,07,09,13,44,27.00
2010,07,09,13,45,26.90
2010,07,09,13,46,26.80
2010,07,09,13,47,26.80
2010,07,09,13,48,26.80
2010,07,09,13,49,26.80
2010,07,09,13,50,26.90
2010,07,09,13,51,26.90
2010,07,09,13,52,27.00
2010,07,09,13,53,27.20
2010,07,09,13,54,27.30
2010,07,09,13,55,27.40
2010,07,09,13,56,27.50
2010,07,09,13,57,27.60
2010,07,09,13,58,27.70
2010,07,09,13,59,27.70
2010,07,09,14,00,27.70
2010,07,09,14,01,27.60
2010,07,09,14,02,27.60
2010,07,09,14,03,27.60
2010,07,09,14,04,27.70
2010,07,09,14,05,27.60
2010,07,09,14,06,27.60
2010,07,09,14,07,27.50
2010,07,09,14,08,27.50
2010,07,09,14,09,27.40
2010,07,09,14,10,27.30
2010,07,09,14,11,27.30
2010,07,09,14,12,27.20
2010,07,09,14,13,27.30
2010,07,09,14,14,27.30
2010,07,09,14,15,27.30
2010,07,09,14,16,27.40
2010,07,09,14,17,27.50
2010,07,09,14,18,27.50
2010,07,09,14,19,27.60
2010,07,09,14,20,27.70
2010,07,09,14,21,27.80
2010,07,09,14,22,27.90
2010,07,09,14,23,27.90
2010,07,09,14,24,27.90
2010,07,09,14,25,27.90
2010,07,09,14,26,28.00
2010,07,09,14,27,28.10
2010,07,09,14,28,28.10
2010,07,09,14,29,28.20
2010,07,09,14,30,28.20
2010,07,09,14,31,28.30
2010,07,09,14,32,28.40
2010,07,09,14,33,28.50
2010,07,09,14,34,28.60
2010,07,09,14,35,28.60
2010,07,09,14,36,28.70
2010,07,09,14,37,28.70
2010,07,09,14,38,28.80
2010,07,09,14,39,28.70
2010,07,09,14,40,28.60
2010,07,09,14,41,28.60
2010,07,09,14,42,28.70
2010,07,09,14,43,28.70
2010,07,09,14,44,28.70
2010,07,09,14,45,28.70
2010,07,09,14,46,28.70
2010,07,09,14,47,28.80
2010,07,09,14,48,28.70
2010,07,09,14,49,28.70
2010,07,09,14,50,28.80
2010,07,09,14,51,28.80
2010,07,09,14,52,28.90
2010,07,09,14,53,28.80
2010,07,09,14,54,28.80
2010,07,09,14,55,28.80
2010,07,09,14,56,28.80
2010,07,09,14,57,28.80
2010,07,09,14,58,28.80
2010,07,09,14,59,28.80
2010,07,09,15,00,28.90
2010,07,09,15,01,29.00
2010,07,09,15,02,29.00
2010,07,09,15,03,29.10
2010,07,09,15,04,29.20
2010,07,09,15,05,29.30
2010,07,09,15,06,29.30
2010,07,09,15,07,29.30
2010,07,09,15,08,29.30
2010,07,09,15,09,29.40
2010,07,09,15,10,29.50
2010,07,09,15,11,29.60
2010,07,09,15,12,29.60
2010,07,09,15,13,29.60
2010,07,09,15,14,29.60
2010,07,09,15,15,29.50
2010,07,09,15,16,29.40
2010,07,09,15,17,29.40
2010,07,09,15,18,29.30
2010,07,09,15,19,29.30
2010,07,09,15,20,29.20
2010,07,09,15,21,29.00
2010,07,09,15,22,28.90
2010,07,09,15,23,28.70
2010,07,09,15,24,28.60
2010,07,09,15,25,28.50
2010,07,09,15,26,28.50
2010,07,09,15,27,28.40
2010,07,09,15,28,28.40
2010,07,09,15,29,28.40
2010,07,09,15,30,28.40
2010,07,09,15,31,28.30
2010,07,09,15,32,28.30
2010,07,09,15,33,28.30
2010,07,09,15,34,28.30
2010,07,09,15,35,28.40
2010,07,09,15,36,28.50
2010,07,09,15,37,28.60
2010,07,09,15,38,28.80
2010,07,09,15,39,28.80
2010,07,09,15,40,28.90
2010,07,09,15,41,28.90
2010,07,09,15,42,28.90
2010,07,09,15,43,29.00
2010,07,09,15,44,28.90
2010,07,09,15,45,28.90
2010,07,09,15,46,28.70
2010,07,09,15,47,28.60
2010,07,09,15,48,28.50
2010,07,09,15,49,28.40
2010,07,09,15,50,28.40
2010,07,09,15,51,28.30
2010,07,09,15,52,28.30
2010,07,09,15,53,28.30
2010,07,09,15,54,28.30
2010,07,09,15,55,28.20
2010,07,09,15,56,28.10
2010,07,09,15,57,28.10
2010,07,09,15,58,28.00
2010,07,09,15,59,27.90
2010,07,09,16,00,27.90
2010,07,09,16,01,27.90
2010,07,09,16,02,27.90
2010,07,09,16,03,27.90
2010,07,09,16,04,28.00
2010,07,09,16,05,27.90
2010,07,09,16,06,27.80
2010,07,09,16,07,27.70
2010,07,09,16,08,27.70
2010,07,09,16,09,27.70
2010,07,09,16,10,27.70
2010,07,09,16,11,27.70
2010,07,09,16,12,27.60
2010,07,09,16,13,27.60
2010,07,09,16,14,27.60
2010,07,09,16,15,27.60
2010,07,09,16,16,27.70
2010,07,09,16,17,27.60
2010,07,09,16,18,27.60
2010,07,09,16,19,27.60
2010,07,09,16,20,27.60
2010,07,09,16,21,27.50
2010,07,09,16,22,27.50
2010,07,09,16,23,27.50
2010,07,09,16,24,27.50
2010,07,09,16,25,27.40
2010,07,09,16,26,27.40
2010,07,09,16,27,27.40
2010,07,09,16,28,27.40
2010,07,09,16,29,27.50
2010,07,09,16,30,27.50
2010,07,09,16,31,27.60
2010,07,09,16,32,27.60
2010,07,09,16,33,27.60
2010,07,09,16,34,27.60
2010,07,09,16,35,27.70
2010,07,09,16,36,27.70
2010,07,09,16,37,27.80
2010,07,09,16,38,27.80
2010,07,09,16,39,27.80
2010,07,09,16,40,27.80
2010,07,09,16,41,27.80
2010,07,09,16,42,27.80
2010,07,09,16,43,27.80
2010,07,09,16,44,27.80
2010,07,09,16,45,27.90
2010,07,09,16,46,27.90
2010,07,09,16,47,27.90
2010,07,09,16,48,28.00
2010,07,09,16,49,28.00
2010,07,09,16,50,28.10
2010,07,09,16,51,28.10
2010,07,09,16,52,28.20
2010,07,09,16,53,28.30
2010,07,09,16,54,28.30
2010,07,09,16,55,28.40
2010,07,09,16,56,28.40
2010,07,09,16,57,28.40
2010,07,09,16,58,28.50
2010,07,09,16,59,28.60
2010,07,09,17,00,28.60
2010,07,09,17,01,28.60
2010,07,09,17,02,28.70
2010,07,09,17,03,28.70
2010,07,09,17,04,28.70
2010,07,09,17,05,28.70
2010,07,09,17,06,28.70
2010,07,09,17,07,28.80
2010,07,09,17,08,28.80
2010,07,09,17,09,28.80
2010,07,09,17,10,28.80
2010,07,09,17,11,28.80
2010,07,09,17,12,28.80
2010,07,09,17,13,28.90
2010,07,09,17,14,28.90
2010,07,09,17,15,28.90
2010,07,09,17,16,28.90
2010,07,09,17,17,28.90
2010,07,09,17,18,28.90
2010,07,09,17,19,28.90